Regional Weather Roundup
Issued by NWS

Home | Current Version | Previous Version | Graphics & Text | Print | Product List | Glossary Off
Versions: 1 2 3 4 5 6 7 8 9 10 11 12 13 14 15 16 17 18 19 20 21 22 23 24 25 26 27 28 29 30 31 32 33 34 35 36 37 38 39 40 41 42 43 44 45 46 47 48 49 50

000
ASUS44 KMEG 260310
RWRTN
TENNESSEE HOURLY STATE WEATHER ROUNDUP
NATIONAL WEATHER SERVICE MEMPHIS TN
1000 PM CDT MON MAY 25 2015

TNZ002-004-019-021-049-052-054-088>092-260400-
WEST TENNESSEE

CITY           SKY/WX    TMP DP  RH WIND       PRES   REMARKS
MEMPHIS INTL   MOCLDY    77  69  76 S13G20    30.00S
NWS MEMPHIS      N/A     75 N/A N/A MISG        N/A
JACKSON        CLOUDY    72  67  84 SE7       30.05R
DYERSBURG      CLOUDY    73  57  56 SE8       30.01F
PARIS          PTCLDY    68  66  94 SE10      30.06F
LEXINGTON      CLOUDY    68  66  94 SE3       30.08R
$$

TNZ008-025-027-028-033-062-065-066-260400-
NORTH MIDDLE TENNESSEE

CITY           SKY/WX    TMP DP  RH WIND       PRES   REMARKS
NASHVILLE      PTCLDY    68  66  93 SE6       30.14R
CLARKSVILLE    CLOUDY    69  67  93 SE7       30.09R
SMYRNA         MOCLDY    67  66  96 CALM      30.15R
COOKEVILLE     PTCLDY    66  66 100 CALM      30.16R
CROSSVILLE     CLOUDY    66  63  90 S3        30.22R
$$

TNZ061-075-076-078-094-096-097-260400-
SOUTH MIDDLE TENNESSEE

CITY           SKY/WX    TMP DP  RH WIND       PRES   REMARKS
FAYETTEVILLE   PTCLDY   N/A N/A N/A MISG      30.16R
TULLAHOMA      MOCLDY    66  64  94 CALM      30.18R
WINCHESTER     MOCLDY    66  64  94 S6        30.19R
MCMINNVILLE    PTCLDY    66  66 100 W5        30.18R
COLUMBIA       CLEAR     66  66 100 SE3       30.11S
SHELBYVILLE    CLEAR     68  68 100 SE3       30.16R
$$

TNZ017-018-042-046-047-260400-
NORTHEAST TENNESSEE

CITY           SKY/WX    TMP DP  RH WIND       PRES   REMARKS
TRI CITIES     CLOUDY    75  58  55 SE5       30.22R
ELIZABETHTON   CLEAR     70  57  64 CALM      30.23R
$$

TNZ012-013-036-069-073-074-260400-
CENTRAL EAST TENNESSEE

CITY           SKY/WX    TMP DP  RH WIND       PRES   REMARKS
KNOXVILLE      LGT RAIN  68  63  84 S8        30.19F
OAK RIDGE      LGT RAIN  70  67  90 VRB5      30.21R
GATLINBURG     MOCLDY    73  63  68 E3        30.20R
MORRISTOWN     MOCLDY    75  63  64 SW13      30.22R
$$

TNZ083-085-099-260400-
SOUTHEAST TENNESSEE

CITY           SKY/WX    TMP DP  RH WIND       PRES   REMARKS
CHATTANOOGA    CLOUDY    67  66  97 NW3       30.19R
$$

SKY/WX REPORTED AS FAIR MEANS FEW OR NO CLOUDS BELOW
12 THOUSAND FEET.




USA.gov is the U.S. government's official web portal to all federal, state and local government web resources and services.